SYRACUSE 4A (49333 NORAD) Tracking and Keplerian Element Data

This shows tracking and keplerian element data for the satellite.

Feedback or suggestion? Click here.




ElementValue
Catalog49333
NameSYRACUSE 4A
Epoch Orbit86
Epoch Day336.78650457
Epoch Year2021
RAAN255.9676
Inclination5.4835
Eccentricity0.6529671
Argument of Perigee188.114
Mean Anonmoly151.6242
Mean Motion1.9020196
Decay Rate-4.6E-07
L11 49333U 21095B 21336.78650457 -.00000046 00000+0 00000+0 0 9995
L22 49333 5.4835 255.9676 6529671 188.1140 151.6242 1.90201960 861

Live tracking and technical data element details for SYRACUSE 4A (NORAD 49333). SYRACUSE 4A can be tracked NOW for your location showing map with azimuth and elevation plus other details from your city location.

Track the satellite on the map from your city or location and see movement details for azimuth, elevation, latitude, longitude, range, height, and movement on the map or in text.







IsCatalogInMostPopularTable: catalog: 49333, numindb: 4
Update: records affected: 1



GetName: 49333 SYRACUSE 4A

Hit Count: updated at: Mon, 06 Dec 2021 14:24:51 GMT